Westhampton Beach, NY

7:42 PM EDT on May 27, 2018 (GMT -0400)
The Gabreski

Weather History for KFOK - December, 2011

Change the Weather History Date:

Wednesday, December 14, 2011

  Actual Average Record
Temperature  
Mean Temperature 36 °F -  
Max Temperature 48 °F 44 °F 62 °F (2015)
Min Temperature 23 °F 26 °F 5 °F (2005)
Degree Days  
Heating Degree Days 30    
Moisture  
Dew Point 28 °F    
Average Humidity 77    
Maximum Humidity 92    
Minimum Humidity 52    
Precipitation  
Precipitation 0.00 in - - ()
Sea Level Pressure  
Sea Level Pressure 30.38 in    
Wind  
Wind Speed 3 mph (North)    
Max Wind Speed 10 mph    
Max Gust Speed -    
Visibility 10 miles    
Events      
Averages and records for this station are not official NWS values.
T = Trace of Precipitation, MM = Missing Value Source: NWS Daily Summary

Daily Weather History Graph

Daily Weather History Graph

Search for Another Location

Airport or City:

Astronomy

Dec. 14, 2011 Rise Set
Actual Time 7:06 AM EST 4:23 PM EST
Civil Twilight 6:35 AM EST 4:54 PM EST
Nautical Twilight 6:01 AM EST 5:28 PM EST
Astronomical Twilight 5:28 AM EST 6:02 PM EST
Moon 8:41 PM EST (12/14) 9:49 AM EST (12/14)
Length of Visible Light 10h 18m
Length of Day
9h 16m
Waning Gibbous, 83% of the Moon is Illuminated
Dec 14
Waning Gibbous
Dec 17
Last Quarter
Dec 24
New
Jan 1
First Quarter
Jan 9
Full

Hourly Weather History & Observations

Time (EST) Temp. Windchill Dew Point Humidity Pressure Visibility Wind Dir Wind Speed Gust Speed Precip Events Conditions
12:53 AM 25.0 °F - 21.0 °F 85% 30.35 in 10.0 mi Calm Calm - N/A   Clear
1:53 AM 25.0 °F - 21.0 °F 85% 30.36 in 10.0 mi Calm Calm - N/A   Clear
2:53 AM 24.1 °F 18.2 °F 21.0 °F 88% 30.37 in 10.0 mi NW 4.6 mph - N/A   Clear
3:53 AM 25.0 °F 18.1 °F 21.9 °F 88% 30.36 in 10.0 mi NNW 5.8 mph - N/A   Clear
4:53 AM 25.0 °F 17.1 °F 21.9 °F 88% 30.37 in 10.0 mi North 6.9 mph - N/A   Clear
5:53 AM 26.1 °F 21.9 °F 24.1 °F 92% 30.38 in 9.0 mi NW 3.5 mph - N/A   Clear
6:53 AM 23.0 °F - 19.0 °F 85% 30.39 in 10.0 mi Calm Calm - N/A   Clear
7:53 AM 27.0 °F - 24.1 °F 89% 30.40 in 10.0 mi Calm Calm - N/A   Mostly Cloudy
8:53 AM 43.0 °F 38.2 °F 35.1 °F 74% 30.40 in 10.0 mi North 8.1 mph - N/A   Clear
9:53 AM 46.0 °F 41.0 °F 33.1 °F 61% 30.41 in 10.0 mi North 10.4 mph - N/A   Clear
10:53 AM 46.9 °F - 32.0 °F 56% 30.42 in 10.0 mi North 9.2 mph - N/A   Clear
11:53 AM 48.9 °F - 32.0 °F 52% 30.40 in 10.0 mi NNE 8.1 mph - N/A   Clear
12:53 PM 48.9 °F - 33.1 °F 54% 30.39 in 10.0 mi NE 6.9 mph - N/A   Clear
1:53 PM 48.9 °F - 34.0 °F 56% 30.37 in 10.0 mi NNE 6.9 mph - N/A   Clear
2:53 PM 46.9 °F - 34.0 °F 61% 30.38 in 10.0 mi NE 5.8 mph - N/A   Clear
4:53 PM 33.1 °F - 28.0 °F 82% 30.40 in 10.0 mi Calm Calm - N/A   Clear
5:53 PM 30.9 °F - 26.1 °F 82% 30.40 in 10.0 mi Calm Calm - N/A   Clear
6:53 PM 30.0 °F - 26.1 °F 85% 30.40 in 10.0 mi Calm Calm - N/A   Clear
7:53 PM 30.9 °F - 27.0 °F 85% 30.40 in 10.0 mi Calm Calm - N/A   Clear
8:53 PM 34.0 °F - 30.0 °F 85% 30.40 in 10.0 mi Calm Calm - N/A   Scattered Clouds
9:53 PM 36.0 °F - 30.9 °F 82% 30.38 in 10.0 mi Calm Calm - N/A   Overcast
10:53 PM 39.9 °F 37.8 °F 34.0 °F 79% 30.36 in 10.0 mi SE 3.5 mph - N/A   Mostly Cloudy
11:53 PM 45.0 °F 42.6 °F 35.1 °F 68% 30.35 in 10.0 mi SSE 4.6 mph - N/A   Overcast